User: anonymous   Login
Location: SAPM � Hemmingford
(45.0500°N, 73.5833°W)
Time: 23:57:58
(UTC-05:00)
Language:

Cosmos 1674 Rocket - Orbit

View from above orbital plane
View from above orbital plane
View from above satellite
View from above satellite

Ground track
Ground track

The orbit data is extracted from the following two-line orbital elements,

1 15945U 85069B   17023.78309455  .00000082  00000-0  68756-5 0  9993
2 15945  82.5276 268.2467 0020805  42.1075 318.1734 14.83904893699612
Epoch (UTC): 23 January 2017 18:47:39
Eccentricity: 0.0020805
inclination: 82.5276°
perigee height: 602 km
apogee height: 631 km
right ascension of ascending node: 268.2467°
argument of perigee: 42.1075°
revolutions per day: 14.83904893
mean anomaly at epoch: 318.1734°
orbit number at epoch: 69961

The dashed part of the orbit path shows where the satellite is in the earth's shadow,  

DLR